Simultaneous Nadir Overpasses (SNOs) Predictions

Prediction of SNOs between AQUA and NOAA-19 Satellite Orbit:

Table of predicted SNOs for the next 14.0 days since TLE Epoch: 12/23/2023
Index Date (AQUA) Time (AQUA) Lat,Lon (AQUA) SZA (AQUA ) Date (NOAA-19) Time (NOAA-19) Lat,Lon (NOAA-19) SZA (NOAA-19 ) Distance(km) Time Diff (sec)
1 12/23/2023 17:58:53 -76.01, 84.36 80.58 12/23/2023 17:58:34 -76.00, 84.40 80.59 1.68 19
2 12/23/2023 18:48:18 76.06,-108.16 99.48 12/23/2023 18:49:28 76.07,-108.06 99.48 2.90 70
3 12/25/2023 22:39:45 -76.01, 14.18 80.63 12/25/2023 22:39:48 -75.99, 14.13 80.64 2.10 3
4 12/28/2023 02:31:12 75.95, 136.54 99.24 12/28/2023 02:29:59 75.94, 136.46 99.24 2.21 73
5 12/28/2023 03:20:36 -76.00, -55.99 80.71 12/28/2023 03:21:01 -76.02, -56.01 80.69 2.12 25
6 12/30/2023 07:12:02 75.95, 66.36 99.12 12/30/2023 07:11:12 75.94, 66.22 99.13 4.00 50
7 12/30/2023 08:01:27 -76.05,-126.32 80.77 12/30/2023 08:02:14 -76.04,-126.19 80.79 3.62 47
8 01/01/2024 11:52:52 75.99, -3.96 99.02 01/01/2024 11:52:24 75.98, -3.89 99.01 2.57 28
9 01/01/2024 12:42:16 -76.05, 163.51 80.93 01/01/2024 12:43:27 -76.05, 163.61 80.93 2.49 71
10 01/03/2024 16:33:40 76.00, -74.14 98.83 01/03/2024 16:33:36 76.01, -74.03 98.84 3.21 4
11 01/05/2024 20:25:02 -75.93, 48.24 81.46 01/05/2024 20:23:57 -75.93, 48.17 81.45 2.02 65



Historial Predications of SNOs between AQUA and NOAA-19
